Location: Kudlacze
(49.7800°N, 20.0200°E)
Time: 12:26:35
(UTC+00:00)

Envisat - Pass Details

Date: 03 October 2021
Orbit: 764 x 766 km, 98.2° (Epoch: 20 October)

Event Time Altitude Azimuth Distance (km) Brightness Sun altitude
Rises 03:57:22 0° 14° (NNE) 3,244 6.5 -8.2°
Reaches altitude 10° 03:59:41 10° 15° (NNE) 2,313 5.7 -7.8°
Maximum altitude 04:04:48 83° 104° (ESE) 777 3.1 -7.0°
Drops below altitude 10° 04:09:52 10° 193° (SSW) 2,296 5.3 -6.2°
Sets 04:12:10 0° 194° (SSW) 3,217 6.1 -5.8°
